Retour au catalogue

GLOBALSTAR M068

ActifCommunicationsLEO
NORAD 32266·PAYLOAD·🇺🇸 United States

Lancé Oct 20, 2007 depuis Baikonur Cosmodrome

Loading…

Prochains Passages (prochaines 24 heures)

TLE

FraisSource: Space-Track

Époque: Sep 14, 2026, 07:07 UTC

1 32266U 07048D   26257.29704517 -.00000086  00000-0  98694-4 0  9990
2 32266  51.9913 357.9378 0001416  76.9101 317.2042 12.62850514874931

Suivez GLOBALSTAR M068 en temps réel avec AllMySat

Download on the App Store